Regional Weather Roundup
Issued by NWS Newport/Morehead, NC

Current Version | Previous Version | Graphics & Text | Print | Product List | Glossary Off
Versions: 1 2 3 4 5 6 7 8 9 10 11 12 13 14 15 16 17 18 19 20 21 22 23 24 25 26 27 28 29 30 31 32 33 34 35 36 37 38 39 40 41 42 43 44 45 46 47 48 49 50

000
ASUS42 KMHX 230625
RWRMHX
WEATHER ROUNDUP FOR EASTERN NORTH CAROLINA
NATIONAL WEATHER SERVICE NEWPORT/MOREHEAD CITY NC
200 AM EDT TUE AUG 23 2016

NOTE: "FAIR" INDICATES FEW OR NO CLOUDS BELOW 12,000 FEET
WITH NO SIGNIFICANT WEATHER AND/OR OBSTRUCTIONS TO VISIBILITY

NCZ015>017-031-032-045>047-102-103-230700-
NORTH COAST

CITY           SKY/WX    TMP DP  RH WIND       PRES   REMARKS
EDENTON        CLEAR     70  70 100 CALM      30.21S
ELIZABETH CITY CLEAR     69  65  86 CALM      30.21R
KITTY HAWK     CLEAR     73  70  91 CALM      30.19S
MANTEO         CLEAR     75  66  74 NE5       30.20S

$$

NCZ045>047-081-094-103-104-230700-
CENTRAL COAST

CITY           SKY/WX    TMP DP  RH WIND       PRES   REMARKS
FRISCO         CLEAR     73  63  70 NE5       30.19S

$$

NCZ095-097-098-100-101-230700-
SOUTHERN COAST

CITY           SKY/WX    TMP DP  RH WIND       PRES   REMARKS
BEAUFORT       PTCLDY    74  70  87 NE3       30.19S
CEDAR ISLAND   NOT AVBL
JACKSONVILLE   CLEAR     76  71  85 E6        30.18R
PINEY ISLAND   NOT AVBL
WILMINGTON     CLEAR     73  71  93 CALM      30.17S


$$

NCZ011>013-027>030-043-044-078>080-089-090>093-098-230700-
COASTAL PLAIN

CITY           SKY/WX    TMP DP  RH WIND       PRES   REMARKS
AHOSKIE        PTCLDY    64  63  96 CALM      30.21S
CLINTON        PTCLDY    68  67  97 CALM      30.19S
ELIZABETHTOWN  CLEAR     69  67  92 CALM      30.18S
GOLDSBORO      PTCLDY    68  68 100 CALM      30.18R
GREENVILLE     CLEAR     70  68  94 CALM      30.21S
HAVELOCK       CLEAR     72  67  84 SE5       30.20R
KENANSVILLE    NOT AVBL
KINSTON        PTCLDY    67  65  93 CALM      30.20S
NEW BERN       CLEAR     71  69  93 CALM      30.20R
RICHLANDS      CLEAR     67  66  97 CALM      30.19R
ROCKY MOUNT    CLEAR     67  65  93 NE3       30.21R
WASHINGTON     CLEAR     69  65  88 NE3       30.20S
WHITEVILLE     CLEAR     70  69  95 CALM      30.17S

$$

AMZ130-135-150-152-154-156-158-170-250-252-270-ANZ085-086-088-633-658-670-230700-
MARINE OBSERVATIONS

STATION/POSITION TIME  TEMP    WIND        PRES    WAVE   SWELL
                       AIR SEA DIR/SP/G            HT/PER HT/PER
                 (UTC) (F)     (DEG/KT/KT) (MB)    (FT/S) (FT/S)
CHESAPEAKE LIGHT NOT AVBL
64 E VA BEACH    0550   79 81   30/ 14/ 16 1021.9    3/ 6   2/ 6
DUCK             0600   79 77   30/  8/  8 1021.8
2 E DUCK         0511      78                N/A     2/13
OREGON INLET     0600   75 80   30/  3/  4 1022.3
13E OREGON INLT  0600      82                N/A     3/ 7   2/ 7
HATTERAS CG      0600   79 82   60/  5/  8 1021.9
DIAMOND BUOY     0550   81 85   40/ 12/ 17 1021.9    3/ 6   2/ 6
CAPE LOOKOUT     0600   80      60/  8/  9 1021.8
BEAUFORT LAB     0600   76 83   30/  3/  4 1021.6
30 SE NEW RVR IN 0608   82 85   80/ 10/ 14 1021.7
30 SE NEW RVR IN 0525      85                N/A     2/13
27 SE WRIGHTSVLE 0608   83 85   80/  8/ 10 1021.8
5 SE WRIGHTSVLE  0608   82 84  100/  6/ 10 1022.6
225 S CAPE HAT   0550   84 85   60/ 12/ 14 1019.6    3/ 5   2/ 5
41 SE CHARLESTON 0550   83 85   70/ 10/ 12 1020.2    2/ 4   2/ 5

$$




USA.gov is the U.S. government's official web portal to all federal, state and local government web resources and services.